Theta_e
308 308 308 308 308 306 299 292 290 301 305 296 292 290 294 297 298 299 296 296 294 292 292 289 289 289 292 298 296 290 290 285 281 285 291 294 290 288 288 279 281 284 283 280
308 307 308 308 308 306 296 292 290 301 303 287 287 293 295 298 296 296 295 293 294 293 289 285 291 291 296 297 295 291 291 282 276 279 283 288 287 289 289 286 284 280 278 279
308 307 308 309 308 307 295 290 287 292 295 293 289 290 292 293 298 295 294 293 294 291 289 289 287 289 294 295 296 301 294 283 281 277 281 283 282 286 288 285 280 280 283 284
309 307 307 308 307 306 297 295 289 288 284 290 290 295 294 293 291 295 294 291 292 290 285 287 285 289 290 293 300 294 288 282 284 285 287 287 287 286 287 284 285 281 285 285
309 307 306 308 307 305 296 290 290 291 287 288 290 294 293 293 293 292 290 288 291 290 285 287 285 287 286 286 288 287 287 280 285 284 288 287 285 287 288 290 289 288 288 287
309 306 304 307 306 303 291 293 297 293 292 291 290 291 294 294 293 294 294 292 290 289 290 292 292 291 289 289 287 284 283 282 279 278 285 285 280 288 290 289 292 290 285 289
310 306 304 305 305 302 296 295 295 291 287 289 290 292 293 292 293 290 294 294 292 294 298 295 291 288 290 289 288 288 283 282 284 277 281 274 285 294 294 289 290 291 290 291
310 307 304 304 306 304 298 297 296 293 287 290 289 291 292 293 294 292 292 295 298 296 294 289 285 285 287 291 294 289 287 283 280 277 274 282 288 292 289 287 285 290 288 290
311 308 305 304 305 305 300 298 299 295 289 287 291 289 291 290 290 290 292 297 299 296 290 287 280 278 287 282 287 293 290 288 285 279 277 275 286 292 294 292 281 289 290 289
311 309 306 305 305 305 300 297 299 295 289 291 292 290 290 294 291 288 291 292 294 294 286 281 281 283 291 283 282 282 280 281 281 280 280 282 291 293 293 280 281 290 291 291
311 310 307 306 305 305 300 298 300 296 290 291 294 295 292 293 292 287 291 291 293 290 285 284 283 282 284 281 286 285 283 283 276 280 279 277 292 291 284 288 291 291 292 293
310 310 308 307 306 305 303 295 300 301 292 291 295 297 298 298 296 294 291 290 292 293 286 284 283 283 281 281 274 290 281 285 282 282 280 290 292 290 292 293 292 293 294 295
310 310 308 307 306 305 304 296 298 296 291 291 292 293 298 300 299 299 290 294 297 294 293 286 283 281 283 275 285 289 291 291 286 282 287 288 291 293 294 295 294 295 297 297
309 309 307 307 306 305 304 297 298 295 292 286 289 299 297 302 299 298 298 295 297 293 290 286 283 281 287 288 289 288 285 286 284 283 287 290 293 293 294 295 296 297 298 295
309 308 307 306 304 304 303 299 299 299 292 286 288 293 297 299 299 297 297 295 294 289 286 284 283 290 290 286 286 282 286 287 285 284 288 289 290 293 295 294 295 297 296 295
309 308 307 305 304 303 297 292 298 300 298 289 285 293 295 297 297 297 295 295 293 291 288 285 285 293 290 287 279 290 291 291 291 286 291 291 293 295 297 295 297 297 296 295
308 307 305 304 304 299 294 292 297 300 298 289 286 287 294 297 298 298 297 297 294 292 289 284 285 291 293 289 285 289 290 291 289 291 293 291 293 292 296 297 297 298 297 296
307 305 304 304 303 299 295 298 301 301 295 293 285 286 290 299 293 293 298 295 296 295 289 291 289 294 292 286 290 290 289 289 291 293 294 293 295 295 295 296 296 294 295 294
304 304 302 298 295 292 294 303 303 301 294 287 287 285 284 297 296 296 297 297 290 294 289 290 291 289 284 289 287 286 289 290 290 292 293 293 292 293 294 294 294 293 293 293
303 298 294 290 294 301 302 297 292 291 291 290 286 291 287 292 294 293 292 294 290 287 289 293 289 288 290 290 288 289 293 292 292 289 289 290 291 292 292 292 293 294 293 293
296 293 291 298 303 297 293 288 287 287 285 288 289 289 287 295 287 288 291 287 286 283 287 288 285 286 289 290 289 292 292 293 293 293 293 293 293 292 291 291 293 293 293 294
296 297 299 298 294 290 287 286 288 286 284 289 288 289 290 290 292 287 288 284 287 280 291 287 285 288 287 289 289 291 289 291 289 291 291 293 294 293 291 292 292 293 293 295
298 295 291 290 289 282 282 280 285 286 290 292 291 290 291 290 290 288 287 285 281 292 287 285 286 287 288 288 289 291 291 289 289 290 291 292 293 293 292 291 292 293 293 294
291 289 283 284 283 283 284 286 289 294 294 295 293 290 289 289 287 287 284 288 290 283 284 282 282 285 287 288 290 288 287 288 288 289 290 291 291 291 291 292 292 292 291 293
290 289 282 283 287 289 290 294 292 294 296 294 292 291 290 288 287 286 284 283 282 283 278 278 285 286 287 287 289 288 287 287 288 288 289 289 289 289 289 291 292 291 292 292
291 289 286 287 288 288 289 292 292 295 294 293 291 289 288 288 285 283 283 279 278 276 279 282 285 285 287 287 288 289 289 289 288 288 289 289 289 288 288 290 291 291 291 291
289 287 290 289 290 291 292 294 294 296 293 287 288 286 286 289 282 281 280 276 278 281 284 285 285 286 286 288 289 290 290 289 288 288 288 288 288 289 288 287 290 290 291 291
Wind_Speed
12 12 15 18 20 23 8 4 4 3 5 4 2 1 6 10 6 5 5 3 1 1 1 2 3 2 1 2 6 4 1 4 3 8 6 5 4 5 5 3 3 3 4 7
11 10 12 16 19 15 5 5 4 6 2 1 3 5 7 9 15 10 5 4 3 2 2 2 2 1 2 2 3 6 6 1 2 8 7 4 0 3 4 1 2 6 2 7
9 8 10 13 17 15 3 3 5 6 5 3 3 5 4 4 12 6 6 4 2 3 1 2 2 2 0 4 3 4 7 4 7 7 7 5 5 6 6 6 4 4 9 11
8 7 8 11 16 18 2 2 2 1 5 3 5 2 5 12 6 6 7 4 2 1 2 3 4 2 2 3 2 3 4 5 6 7 10 9 12 13 12 10 15 11 16 10
8 5 6 8 13 18 4 2 3 4 4 6 5 3 3 4 5 4 8 6 10 6 5 7 7 5 4 6 1 3 1 4 3 5 11 10 9 13 12 11 13 13 13 11
9 7 4 5 10 8 3 2 2 1 4 4 4 3 1 4 8 6 11 13 13 10 10 8 9 7 5 5 7 5 4 3 2 5 4 8 5 3 3 3 7 5 4 3
9 9 5 2 3 4 1 0 0 1 4 4 5 7 12 13 5 6 14 17 4 4 4 3 0 2 5 5 6 7 5 4 2 4 5 3 4 2 2 8 7 4 6 6
10 11 8 5 4 3 1 1 2 1 5 5 11 9 6 7 8 13 16 13 4 6 4 3 4 4 4 3 4 4 5 5 1 1 2 8 1 3 4 5 19 2 6 11
11 13 11 8 5 7 2 2 1 1 3 4 4 7 7 5 3 6 5 10 7 3 3 3 1 2 1 3 1 4 5 4 4 1 2 5 2 9 8 10 9 8 13 13
11 13 13 11 8 6 3 2 2 1 3 5 4 3 3 3 3 4 4 8 6 4 3 2 1 1 3 1 2 0 2 2 4 3 4 6 5 10 11 2 6 15 13 18
10 14 14 12 9 6 5 1 3 3 3 9 10 10 8 4 2 2 4 6 2 4 4 2 2 1 2 2 2 1 2 1 2 2 3 5 6 3 3 5 11 18 19 20
10 13 14 13 9 7 9 2 2 2 3 6 4 8 12 12 16 5 3 4 5 1 2 1 1 2 2 2 2 3 1 4 3 5 6 1 2 4 7 7 15 17 19 23
9 13 14 13 10 10 11 2 3 1 3 5 4 7 9 11 15 13 4 4 2 1 3 3 1 2 3 1 2 2 2 2 2 5 2 5 14 9 7 17 18 23 22 25
9 13 13 11 8 8 10 3 2 1 1 4 6 5 7 2 5 12 19 1 5 3 3 1 2 2 2 1 2 3 1 3 2 6 6 14 6 12 17 19 22 21 23 14
8 13 12 10 7 6 6 2 3 2 2 4 6 10 7 10 6 8 12 10 5 1 3 2 2 1 1 1 0 2 1 1 1 4 7 6 14 17 22 22 23 22 26 16
12 13 13 10 9 10 3 2 1 4 3 3 4 4 4 5 3 10 10 7 3 3 2 2 3 4 2 2 2 2 3 4 2 6 10 13 17 19 19 20 21 22 22 23
13 10 11 10 10 3 2 1 2 6 3 2 4 4 4 5 3 3 3 3 2 3 2 1 2 2 0 1 2 3 5 6 7 7 10 10 9 15 21 19 22 23 24 21
11 12 9 6 12 3 2 2 8 5 2 2 3 4 4 3 1 3 2 3 2 2 3 2 1 0 1 2 3 5 5 6 5 8 11 14 16 16 18 18 20 24 23 26
15 13 14 4 2 1 2 1 9 2 1 2 2 2 2 6 2 3 2 1 2 1 2 1 1 2 3 2 1 4 5 6 9 13 13 13 16 18 18 20 21 21 24 27
20 4 2 2 3 5 7 3 2 2 3 3 3 2 3 3 2 4 3 2 2 3 2 3 2 1 3 2 1 4 5 7 9 12 14 17 17 18 19 18 17 19 21 25
2 2 2 1 6 1 2 2 3 3 3 3 3 4 2 2 3 3 3 3 3 2 2 2 2 2 3 1 2 4 7 8 8 9 10 12 14 16 16 17 18 18 21 22
5 4 3 2 3 2 4 3 3 4 3 4 3 4 5 4 3 3 1 2 2 2 4 2 2 2 3 1 3 6 6 8 8 9 10 12 12 15 14 14 15 17 18 21
2 2 3 2 3 4 5 4 3 3 4 3 3 3 4 2 2 1 2 0 2 5 3 2 1 2 1 2 2 4 5 6 7 9 10 12 11 13 13 15 14 16 17 19
2 4 4 4 4 5 5 3 1 2 2 3 3 3 4 2 2 2 2 1 3 2 2 2 2 2 0 3 3 4 6 7 8 9 10 11 12 12 12 13 14 14 17 19
3 3 4 7 5 3 3 2 2 3 3 2 4 3 2 0 1 1 2 1 2 2 3 3 2 3 1 3 4 4 5 6 6 6 7 11 12 12 12 13 13 14 14 16
1 4 3 4 2 1 2 2 5 2 3 2 3 3 2 1 2 2 3 3 4 5 3 3 4 3 2 2 2 3 4 5 5 5 5 7 12 12 11 11 13 13 14 15
4 3 3 3 3 3 3 3 3 1 3 3 1 1 2 2 1 1 4 5 4 4 2 2 5 5 2 2 3 4 5 5 6 5 6 6 8 11 11 13 13 12 13 13
Wind_Direction
316 329 337 337 344 343 30 1 346 303 347 43 57 345 328 307 305 335 306 327 36 164 164 234 251 233 264 158 150 150 126 145 241 247 273 239 174 182 180 169 284 301 311 272
307 324 338 338 341 6 336 347 280 307 37 112 0 326 337 326 326 322 327 10 1 17 180 329 223 17 26 99 147 171 182 200 346 340 353 353 260 218 222 67 76 231 255 265
295 317 336 336 333 347 86 13 342 327 28 39 74 13 300 308 322 313 350 286 38 2 314 257 264 265 111 338 224 167 122 152 170 201 223 189 273 248 215 186 200 250 232 275
282 308 332 338 332 339 99 70 303 359 318 343 325 81 282 277 324 326 315 333 39 243 274 264 237 219 302 321 138 83 111 211 201 239 248 250 263 271 271 229 240 230 270 262
281 287 324 339 338 342 67 54 357 359 286 287 273 156 245 270 314 324 312 324 321 274 223 218 248 200 194 212 135 117 85 258 222 270 259 268 274 285 281 298 264 251 272 290
258 247 294 337 353 1 56 326 0 356 288 300 309 241 4 320 350 272 270 305 296 275 249 221 221 204 202 207 182 190 171 183 100 264 313 307 291 1 51 311 283 279 277 270
239 230 246 304 11 46 115 326 107 279 270 282 276 312 302 293 274 267 290 297 227 279 339 331 52 185 230 217 244 179 155 141 145 271 347 290 248 216 269 336 285 274 287 309
238 216 224 245 201 160 129 263 164 245 277 292 289 282 300 306 294 278 279 289 268 293 10 13 357 339 37 37 8 194 180 120 145 245 198 282 211 16 335 0 302 65 327 312
244 213 212 232 234 192 152 227 184 204 295 250 336 324 300 295 279 301 268 329 308 45 69 58 309 255 130 318 197 62 83 87 123 213 235 258 49 358 331 309 264 10 329 314
258 214 207 219 235 218 167 236 189 131 254 277 297 243 290 309 289 271 298 333 330 19 49 64 216 311 327 323 289 16 23 22 187 223 256 278 34 353 303 270 297 323 320 305
261 216 207 210 234 258 155 240 183 178 240 277 257 259 260 236 199 259 328 332 355 14 51 59 288 80 272 13 343 287 170 231 252 328 275 285 22 345 1 270 307 306 302 293
256 218 208 205 220 242 167 228 182 164 219 260 257 252 257 242 245 286 301 291 291 230 76 349 348 320 13 146 283 2 236 179 228 188 230 237 237 209 263 285 299 298 302 298
248 217 206 209 217 226 177 180 140 183 272 269 255 243 240 221 229 219 214 257 252 70 157 160 215 260 118 72 292 351 215 35 224 18 294 317 315 305 297 310 303 308 298 306
246 201 201 204 218 223 166 163 153 156 289 283 281 313 277 250 185 191 212 310 348 80 73 124 147 189 163 258 261 242 200 23 347 267 301 317 262 315 310 310 304 304 310 302
223 188 199 189 198 234 151 147 189 192 200 289 291 303 252 265 216 182 201 222 271 54 24 28 248 240 67 334 6 270 191 315 279 272 319 292 290 306 308 303 309 314 313 318
191 186 186 174 194 128 92 272 158 193 168 279 290 303 297 304 175 185 184 191 186 94 163 232 285 269 116 229 222 100 32 344 276 274 303 288 286 294 303 310 314 317 316 311
178 184 161 169 174 131 182 219 138 156 124 249 283 291 262 268 185 132 127 157 147 138 181 189 214 286 139 245 251 33 344 315 289 275 302 298 294 306 309 317 316 312 314 308
162 141 148 172 142 76 274 220 172 151 216 246 275 278 290 333 237 93 138 131 114 194 228 155 211 32 254 255 72 352 310 320 310 316 308 293 300 310 320 325 321 322 327 325
131 124 108 87 82 191 226 271 185 151 276 264 243 275 279 328 293 107 54 86 204 151 212 190 132 218 233 76 355 305 326 337 314 315 314 322 324 323 327 328 326 327 331 329
125 92 137 187 205 193 170 170 158 177 193 232 245 261 266 330 295 159 197 202 185 192 209 119 202 258 97 102 249 281 330 334 333 329 333 333 329 327 331 328 326 327 331 331
106 143 189 101 143 190 187 215 205 172 237 213 233 215 222 244 236 213 198 182 165 169 197 204 209 221 134 85 312 25 353 333 331 317 319 318 313 329 331 327 331 331 333 337
155 133 104 120 196 197 249 217 175 213 243 198 211 197 199 256 213 196 195 171 99 204 148 221 225 125 123 21 348 352 339 340 330 325 315 315 334 336 334 333 334 335 333 338
88 113 163 187 159 231 217 217 192 224 196 209 187 213 223 241 221 97 100 74 205 116 172 213 22 120 71 339 345 333 334 324 311 315 319 322 338 339 342 339 342 340 340 344
157 160 185 205 185 229 204 214 251 300 307 298 307 233 192 198 111 124 136 153 136 261 213 217 193 195 36 293 325 356 326 331 325 330 331 342 343 341 340 345 344 346 346 345
159 199 219 216 236 251 208 145 262 252 262 307 325 278 166 178 113 9 72 195 242 212 224 231 167 156 238 325 335 342 330 327 330 330 346 357 353 351 344 345 349 351 351 351
233 218 250 241 261 224 208 201 267 205 239 192 226 253 120 341 151 129 215 128 213 243 199 187 145 203 253 275 288 313 318 334 342 341 345 352 353 353 344 342 358 355 355 354
218 229 227 258 296 265 257 188 252 170 345 263 209 137 112 138 103 252 172 191 210 192 157 138 174 207 251 260 345 335 354 1 354 351 359 2 353 358 359 359 359 355 358 355